Regional Weather Roundup
Issued by NWS

Home | Current Version | Previous Version | Graphics & Text | Print | Product List | Glossary On
Versions: 1 2 3 4 5 6 7 8 9 10 11 12 13 14 15 16 17 18 19 20 21 22 23 24 25 26 27 28 29 30 31 32 33 34 35 36 37 38 39 40 41 42 43 44 45 46 47 48 49 50
000
ASUS43 KOAX 260010
RWRNE

WEATHER ROUNDUP FOR NEBRASKA
NATIONAL WEATHER SERVICE OMAHA NE
700 PM CDT WED APR 25 2018

NOTES: SATELLITE DATA IS BEING USED TO AUGMENT CLOUD COVER ABOVE
       12000 FEET.
       "FAIR" INDICATES FEW OR NO CLOUDS BELOW 12,000 FEET WITH NO
       SIGNIFICANT WEATHER AND/OR OBSTRUCTIONS TO VISIBILITY.


NEZ001>004-019>022-054>056-260100-
NEBRASKA PANHANDLE

CITY           SKY/WX    TMP DP  RH WIND       PRES   REMARKS
SCOTTSBLUFF    SUNNY     71  24  17 S8        29.96F
6HR MIN TEMP:  54; 6HR MAX TEMP:  71;

ALLIANCE       SUNNY     64  23  21 SW9       29.97F
6HR MIN TEMP:  52; 6HR MAX TEMP:  66;

CHADRON        PTSUNNY   67  25  20 SW10      29.92F
GORDON         FAIR      65  25  21 SW14      29.96F
6HR MIN TEMP:  55; 6HR MAX TEMP:  67;

KIMBALL        SUNNY     66  22  18 S9        30.03F
SIDNEY         SUNNY     65  24  21 S10       30.03F
6HR MIN TEMP:  54; 6HR MAX TEMP:  66;

$$

NEZ057>060-069>072-079>082-260100-
SOUTHWEST NEBRASKA

CITY           SKY/WX    TMP DP  RH WIND       PRES   REMARKS
NORTH PLATTE   SUNNY     60  32  34 SW6       30.04F
6HR MIN TEMP:  55; 6HR MAX TEMP:  63;

IMPERIAL       SUNNY     61  29  29 S5        30.05F
6HR MIN TEMP:  53; 6HR MAX TEMP:  63;

LEXINGTON      SUNNY     60  30  32 CALM      30.06F
MCCOOK         SUNNY     62  29  28 CALM      30.06F
6HR MIN TEMP:  53; 6HR MAX TEMP:  63;

OGALLALA       MOSUNNY   64  31  29 SW6       30.03F
$$

NEZ005>010-023>029-035>040-094-260100-
NORTH CENTRAL NEBRASKA

CITY           SKY/WX    TMP DP  RH WIND       PRES   REMARKS
VALENTINE      PTSUNNY   67  21  17 S15       29.97F
6HR MIN TEMP:  56; 6HR MAX TEMP:  68;

AINSWORTH      CLOUDY    61  29  29 S8        30.01F
BROKEN BOW     SUNNY     59  26  28 S3        30.05F
6HR MIN TEMP:  53; 6HR MAX TEMP:  60;

O`NEILL        SUNNY     60  27  28 S7        30.04F
ORD            SUNNY     58  27  30 S6        30.03F
6HR MIN TEMP:  53; 6HR MAX TEMP:  61;

THEDFORD       PTSUNNY   64  24  22 SW7       30.02F
$$

NEZ041-046>049-061>064-073>077-083>087-260100-
SOUTH CENTRAL NEBRASKA

CITY           SKY/WX    TMP DP  RH WIND       PRES   REMARKS
GRAND ISLAND   SUNNY     59  29  31 N5        30.08F
6HR MIN TEMP:  50; 6HR MAX TEMP:  60;

AURORA         SUNNY     57  28  32 CALM      30.08F
HASTINGS       SUNNY     58  32  37 N6        30.09F
6HR MIN TEMP:  48; 6HR MAX TEMP:  58;

HEBRON         SUNNY     55  35  47 CALM      30.09F
HOLDREGE       SUNNY     57  33  40 N3        30.08F
KEARNEY        SUNNY     58  30  34 W3        30.08F
YORK             N/A     57  32  38 CALM      30.08F
$$

NEZ011>018-030>034-042>045-260100-
NORTHEAST NEBRASKA

CITY           SKY/WX    TMP DP  RH WIND       PRES   REMARKS
NORFOLK        SUNNY     59  28  30 CALM      30.05F
6HR MIN TEMP:  53; 6HR MAX TEMP:  61;

ALBION         SUNNY     59  28  30 S5        30.05F
BLAIR          SUNNY     61  32  34 N6        30.05F
COLUMBUS       SUNNY     59  31  34 S3        30.07F
FREMONT        SUNNY     62  31  30 CALM      30.06F
TEKAMAH        SUNNY     61  30  31 NW6       30.05F
6HR MIN TEMP:  56; 6HR MAX TEMP:  63;

WAYNE          SUNNY     60  30  32 W3        30.05F
$$

NEZ050>053-065>068-078-088>093-260100-
SOUTHEAST NEBRASKA

CITY           SKY/WX    TMP DP  RH WIND       PRES   REMARKS
LINCOLN        SUNNY     58  30  34 CALM      30.09F
6HR MIN TEMP:  50; 6HR MAX TEMP:  59;

OMAHA EPPLEY   MOSUNNY   63  33  32 NW9       30.04F
6HR MIN TEMP:  51; 6HR MAX TEMP:  65;

BEATRICE       SUNNY     55  35  45 CALM      30.09F
FALLS CITY     CLOUDY    54  35  48 NE6       30.08F
6HR MIN TEMP:  48; 6HR MAX TEMP:  56; 6HR PCP:  0.01;

NEBRASKA CITY  SUNNY     55  40  58 W3        30.07F
PLATTSMOUTH    SUNNY     58  37  44 W8        30.05F
$$

NEZ044-045-051>053-067-260100-
OMAHA AREA

CITY           SKY/WX    TMP DP  RH WIND       PRES   REMARKS
OMAHA EPPLEY   MOSUNNY   63  33  32 NW9       30.04F
6HR MIN TEMP:  51; 6HR MAX TEMP:  65;

BLAIR          SUNNY     61  32  34 N6        30.05F
FREMONT        SUNNY     62  31  30 CALM      30.06F
MILLARD        SUNNY     61  33  34 W6        30.06S
OFFUTT AFB     SUNNY     61  34  37 W8        30.04F
PLATTSMOUTH    SUNNY     58  37  44 W8        30.05F
WAHOO          FAIR      60  28  29 CALM      30.07S
$$




USA.gov is the U.S. government's official web portal to all federal, state and local government web resources and services.